Weather History for Point Pleasant, WV

Change the Weather History Date:

Wednesday, February 20, 2013

  Actual Average (KHTS) Record (KHTS)
Temperature  
Mean Temperature 28 °F 38 °F  
Max Temperature 33 °F 48 °F 74 °F (1955)
Min Temperature 23 °F 29 °F 6 °F (1936)
Degree Days  
Heating Degree Days 37 27  
Month to date heating degree days 574  
Since 1 July heating degree days 3298  
Cooling Degree Days 0 0  
Month to date cooling degree days 0  
Year to date cooling degree days 0  
Moisture  
Dew Point 16 °F    
Average Humidity 59    
Maximum Humidity 68    
Minimum Humidity 44    
Precipitation  
Precipitation 0.00 in 0.11 in 1.16 in (1911)
Month to date precipitation 2.15  
Year to date precipitation 5.12  
Snow  
Snow 0.00 in - - ()
Month to date snowfall  
Since 1 September snowfall  
Snow Depth -    
Sea Level Pressure  
Sea Level Pressure 30.22 in    
Wind  
Wind Speed 7 mph (WNW)    
Max Wind Speed 12 mph    
Max Gust Speed 22 mph    
Visibility 10 miles    
Events Snow    
T = Trace of Precipitation, MM = Missing Value Source: NWS Daily Summary

Daily Weather History Graph

Daily Weather History Graph

Search for Another Location

Airport:

Trip Planner

Search our weather history database for the weather conditions in past years. The results will help you decide how hot, cold, wet, or windy it might be!

Date:

Astronomy

Feb. 20, 2013 Rise Set
Actual Time 7:12 AM EST 6:11 PM EST
Civil Twilight 6:45 AM EST 6:38 PM EST
Nautical Twilight 6:14 AM EST 7:09 PM EST
Astronomical Twilight 5:44 AM EST 7:40 PM EST
Moon 1:33 PM EST (2/20) 3:30 AM EST (2/20)
Length of Visible Light 11h 52m
Length of Day
10h 58m
Waxing Gibbous, 76% of the Moon is Illuminated
Feb 20
Waxing Gibbous
Feb 25
Full
Mar 4
Last Quarter
Mar 11
New
Mar 19
First Quarter

Hourly Weather History & Observations

Time (EST) Temp. Windchill Dew Point Humidity Pressure Visibility Wind Dir Wind Speed Gust Speed Precip Events Conditions
12:15 AM 32.0 °F 23.6 °F 21.2 °F 64% 30.10 in 10.0 mi West 10.4 mph 17.3 mph N/A   Mostly Cloudy
12:35 AM 30.2 °F 21.3 °F 19.4 °F 64% 30.10 in 10.0 mi West 10.4 mph 19.6 mph N/A   Mostly Cloudy
12:55 AM 30.2 °F 23.4 °F 17.6 °F 60% 30.10 in 10.0 mi West 6.9 mph 18.4 mph N/A   Mostly Cloudy
1:15 AM 30.2 °F 25.4 °F 17.6 °F 60% 30.10 in 10.0 mi West 4.6 mph - N/A   Mostly Cloudy
1:35 AM 30.2 °F 22.6 °F 17.6 °F 60% 30.11 in 10.0 mi WNW 8.1 mph 16.1 mph N/A   Mostly Cloudy
1:55 AM 30.2 °F 26.7 °F 19.4 °F 64% 30.11 in 10.0 mi West 3.5 mph - N/A   Mostly Cloudy
2:15 AM 30.2 °F 21.9 °F 17.6 °F 60% 30.11 in 10.0 mi West 9.2 mph 17.3 mph N/A   Mostly Cloudy
2:35 AM 30.2 °F 22.6 °F 17.6 °F 60% 30.12 in 10.0 mi West 8.1 mph - N/A   Mostly Cloudy
2:55 AM 30.2 °F 24.3 °F 17.6 °F 60% 30.12 in 10.0 mi West 5.8 mph - N/A   Mostly Cloudy
3:15 AM 30.2 °F 24.3 °F 17.6 °F 60% 30.12 in 10.0 mi West 5.8 mph - N/A   Mostly Cloudy
3:55 AM 28.4 °F 24.6 °F 17.6 °F 64% 30.12 in 10.0 mi WNW 3.5 mph - N/A   Mostly Cloudy
4:15 AM 28.4 °F 22.2 °F 17.6 °F 64% 30.13 in 10.0 mi West 5.8 mph - N/A   Mostly Cloudy
4:35 AM 28.4 °F 23.3 °F 17.6 °F 64% 30.14 in 10.0 mi WNW 4.6 mph - N/A   Scattered Clouds
4:55 AM 28.4 °F 22.2 °F 17.6 °F 64% 30.15 in 10.0 mi West 5.8 mph 16.1 mph N/A Snow Light Snow
5:15 AM 28.4 °F 21.2 °F 17.6 °F 64% 30.15 in 10.0 mi West 6.9 mph - N/A   Mostly Cloudy
5:35 AM 28.4 °F 23.3 °F 17.6 °F 64% 30.16 in 10.0 mi West 4.6 mph - N/A   Mostly Cloudy
5:55 AM 28.4 °F 19.7 °F 17.6 °F 64% 30.16 in 10.0 mi West 9.2 mph - N/A   Mostly Cloudy
6:15 AM 28.4 °F 20.4 °F 17.6 °F 64% 30.16 in 10.0 mi West 8.1 mph - N/A   Mostly Cloudy
6:35 AM 28.4 °F 19.1 °F 17.6 °F 64% 30.17 in 10.0 mi WNW 10.4 mph 21.9 mph N/A   Mostly Cloudy
7:15 AM 28.4 °F 21.2 °F 14.0 °F 55% 30.18 in 10.0 mi West 6.9 mph - N/A   Mostly Cloudy
7:35 AM 28.4 °F 19.7 °F 14.0 °F 55% 30.19 in 10.0 mi WSW 9.2 mph 19.6 mph N/A   Overcast
7:55 AM 28.4 °F 18.5 °F 12.2 °F 51% 30.20 in 10.0 mi WSW 11.5 mph 19.6 mph N/A   Mostly Cloudy
8:15 AM 28.4 °F 20.4 °F 12.2 °F 51% 30.20 in 10.0 mi WSW 8.1 mph 16.1 mph N/A   Scattered Clouds
8:35 AM 28.4 °F 22.2 °F 12.2 °F 51% 30.21 in 10.0 mi WSW 5.8 mph - N/A   Scattered Clouds
8:55 AM 28.4 °F 21.2 °F 14.0 °F 55% 30.21 in 10.0 mi WNW 6.9 mph - N/A   Scattered Clouds
9:15 AM 28.4 °F 19.1 °F 14.0 °F 55% 30.21 in 10.0 mi WSW 10.4 mph 18.4 mph N/A   Clear
9:35 AM 28.4 °F 23.3 °F 14.0 °F 55% 30.22 in 10.0 mi West 4.6 mph 19.6 mph N/A   Scattered Clouds
9:55 AM 28.4 °F 20.4 °F 14.0 °F 55% 30.23 in 10.0 mi West 8.1 mph 16.1 mph N/A   Scattered Clouds
10:15 AM 28.4 °F 21.2 °F 15.8 °F 59% 30.22 in 10.0 mi West 6.9 mph 16.1 mph N/A   Scattered Clouds
10:35 AM 28.4 °F 20.4 °F 15.8 °F 59% 30.22 in 10.0 mi WSW 8.1 mph - N/A   Scattered Clouds
10:55 AM 30.2 °F 22.6 °F 17.6 °F 60% 30.23 in 10.0 mi WNW 8.1 mph - N/A Snow Light Snow
11:15 AM 30.2 °F 25.4 °F 17.6 °F 60% 30.23 in 10.0 mi WNW 4.6 mph - N/A Snow Light Snow
11:35 AM 30.2 °F 24.3 °F 17.6 °F 60% 30.24 in 10.0 mi WNW 5.8 mph - N/A   Scattered Clouds
11:55 AM 30.2 °F 22.6 °F 17.6 °F 60% 30.24 in 10.0 mi WNW 8.1 mph - N/A   Scattered Clouds
12:15 PM 30.2 °F 25.4 °F 19.4 °F 64% 30.24 in 7.0 mi West 4.6 mph - N/A Snow Light Snow
12:55 PM 32.0 °F 25.6 °F 19.4 °F 60% 30.23 in 10.0 mi WSW 6.9 mph - N/A   Scattered Clouds
1:15 PM 32.0 °F 24.8 °F 17.6 °F 55% 30.23 in 10.0 mi West 8.1 mph - N/A   Scattered Clouds
1:35 PM 30.2 °F 22.6 °F 19.4 °F 64% 30.23 in 7.0 mi West 8.1 mph - N/A Snow Light Snow
1:55 PM 32.0 °F 25.6 °F 19.4 °F 60% 30.23 in 10.0 mi West 6.9 mph - N/A   Scattered Clouds
2:15 PM 32.0 °F 26.4 °F 17.6 °F 55% 30.24 in 10.0 mi WSW 5.8 mph 20.7 mph N/A   Scattered Clouds
2:35 PM 32.0 °F 24.8 °F 19.4 °F 60% 30.23 in 10.0 mi West 8.1 mph - N/A   Scattered Clouds
2:55 PM 32.0 °F 26.4 °F 15.8 °F 51% 30.23 in 10.0 mi West 5.8 mph - N/A   Scattered Clouds
3:15 PM 33.8 °F 27.0 °F 15.8 °F 48% 30.22 in 10.0 mi WSW 8.1 mph 16.1 mph N/A   Scattered Clouds
3:35 PM 33.8 °F 27.0 °F 14.0 °F 44% 30.23 in 10.0 mi WNW 8.1 mph - N/A   Scattered Clouds
3:55 PM 33.8 °F 25.3 °F 15.8 °F 48% 30.23 in 10.0 mi NW 11.5 mph - N/A   Scattered Clouds
4:15 PM 33.8 °F 26.4 °F 14.0 °F 44% 30.24 in 10.0 mi NW 9.2 mph - N/A   Scattered Clouds
4:35 PM 32.0 °F 25.6 °F 14.0 °F 48% 30.24 in 10.0 mi WNW 6.9 mph - N/A   Clear
4:55 PM 32.0 °F 24.8 °F 14.0 °F 48% 30.25 in 10.0 mi NW 8.1 mph - N/A   Clear
5:15 PM 32.0 °F 28.7 °F 14.0 °F 48% 30.26 in 10.0 mi WNW 3.5 mph - N/A   Clear
5:35 PM 30.2 °F 23.4 °F 14.0 °F 51% 30.27 in 10.0 mi NW 6.9 mph - N/A   Clear
5:55 PM 30.2 °F 24.3 °F 14.0 °F 51% 30.27 in 10.0 mi NW 5.8 mph - N/A   Clear
6:15 PM 28.4 °F 22.2 °F 14.0 °F 55% 30.27 in 10.0 mi WNW 5.8 mph - N/A   Scattered Clouds
6:35 PM 28.4 °F 24.6 °F 14.0 °F 55% 30.28 in 10.0 mi North 3.5 mph - N/A   Clear
6:55 PM 26.6 °F 22.6 °F 14.0 °F 59% 30.29 in 10.0 mi North 3.5 mph - N/A   Clear
7:15 PM 26.6 °F 21.2 °F 14.0 °F 59% 30.29 in 10.0 mi North 4.6 mph - N/A   Clear
7:35 PM 26.6 °F 21.2 °F 14.0 °F 59% 30.30 in 10.0 mi NNW 4.6 mph - N/A   Clear
7:55 PM 26.6 °F 22.6 °F 14.0 °F 59% 30.30 in 10.0 mi North 3.5 mph - N/A   Clear
8:15 PM 26.6 °F - 14.0 °F 59% 30.30 in 10.0 mi Calm Calm - N/A   Clear
8:35 PM 24.8 °F - 14.0 °F 64% 30.30 in 10.0 mi Calm Calm - N/A   Clear
8:55 PM 24.8 °F - 14.0 °F 64% 30.30 in 10.0 mi Calm Calm - N/A   Scattered Clouds
9:15 PM 24.8 °F - 14.0 °F 64% 30.31 in 10.0 mi Calm Calm - N/A   Scattered Clouds
9:35 PM 24.8 °F - 14.0 °F 64% 30.30 in 10.0 mi Calm Calm - N/A   Scattered Clouds
9:55 PM 24.8 °F - 14.0 °F 64% 30.29 in 10.0 mi Calm Calm - N/A   Scattered Clouds
10:15 PM 24.8 °F - 14.0 °F 64% 30.31 in 10.0 mi Calm Calm - N/A   Scattered Clouds
10:35 PM 24.8 °F - 14.0 °F 64% 30.30 in 10.0 mi Calm Calm - N/A   Scattered Clouds
10:55 PM 23.0 °F - 14.0 °F 68% 30.30 in 10.0 mi Calm Calm - N/A   Scattered Clouds
11:15 PM 23.0 °F - 14.0 °F 68% 30.30 in 10.0 mi Calm Calm - N/A   Scattered Clouds
11:35 PM 23.0 °F - 14.0 °F 68% 30.31 in 10.0 mi Calm Calm - N/A   Mostly Cloudy
11:55 PM 23.0 °F - 14.0 °F 68% 30.30 in 10.0 mi Calm Calm - N/A   Mostly Cloudy